Lid_Strength_Index
4 4 4 3 3 2 2 2 2 1 1 1 1 1 1 1 0 -0 -0 -0 0 1 1 -0 -0 -0 -1 -0 0 0 -0 -0
5 4 4 3 3 2 2 2 1 1 1 1 1 1 1 0 0 -0 -0 1 1 0 -0 1 -1 -0 0 -0 0 -0 -0 -0
5 4 4 3 3 3 2 2 1 1 1 1 1 0 0 0 0 0 1 0 0 0 0 0 -1 -0 1 -0 -0 -0 -0 -0
5 4 4 4 3 3 2 2 1 1 1 1 1 1 1 1 0 -0 -0 -0 0 0 1 1 1 1 4 4 2 -0 -0 -0
4 4 3 3 3 2 2 2 1 1 1 1 1 1 1 1 0 0 0 0 -0 0 1 1 0 -0 5 5 4 0 -0 -0
4 3 3 3 2 2 2 1 1 2 1 2 1 1 1 1 0 0 0 -0 0 0 0 -0 0 0 6 6 5 0 -0 -0
4 2 2 2 2 1 2 3 2 3 3 3 2 1 1 1 1 0 0 0 0 0 -0 0 0 -0 6 6 3 -0 0 0
3 3 3 3 3 2 4 5 5 3 3 2 2 1 1 1 1 1 0 -0 0 0 0 -0 3 0 5 6 3 1 1 1
2 3 3 2 2 2 2 3 4 3 3 3 2 1 1 0 0 0 0 0 0 0 1 0 -0 1 1 6 6 1 1 1
3 3 3 2 1 2 2 2 2 3 4 3 2 1 1 1 0 -0 -0 0 1 1 1 1 0 -0 4 5 6 5 3 1
3 3 3 2 1 1 2 2 2 4 2 2 1 1 0 0 0 0 0 1 1 1 1 1 1 1 -0 4 5 6 4 2
2 2 3 2 1 1 1 1 2 2 1 1 1 1 1 0 1 1 1 1 1 1 2 2 2 1 0 1 2 3 4 3
3 2 3 3 2 3 3 2 1 2 1 1 1 1 1 2 1 2 1 1 2 2 2 2 1 2 2 6 6 4 3 5
3 2 3 4 4 4 3 2 2 1 2 2 3 3 2 1 1 1 8 7 7 7 6 5 1 4 7 8 7 8 8 7
4 3 3 2 2 3 2 2 3 3 2 3 2 2 2 2 2 2 2 4 6 6 6 6 8 9 8 7 7 7 7 6
2 2 2 1 1 2 1 0 1 2 2 4 1 2 2 3 3 2 2 1 2 1 4 5 7 8 8 8 7 5 3 4
1 1 2 1 1 1 1 1 1 1 1 1 2 3 3 3 1 1 1 1 1 1 1 3 4 7 8 7 6 3 3 3
2 3 2 2 3 2 1 0 0 0 0 4 4 1 1 2 1 2 1 1 1 1 1 2 1 2 2 2 2 2 3 3
2 2 2 2 2 1 0 0 0 -0 1 2 4 1 1 2 2 2 2 2 2 2 1 3 10 2 1 2 2 2 3 4
2 2 2 1 1 1 0 2 0 0 0 1 1 2 2 3 3 3 2 3 2 2 2 2 8 1 1 2 1 2 3 4